Location: Caltech
(34.1382°N, 118.1253°W)
Time: 17:19:17
(UTC-07:00)

ASTRO E2 - Visible Passes

Search period start: 25 September 2017 00:00
Search period end: 05 October 2017 00:00
Orbit: 514 x 521 km, 31.4° (Epoch: 25 September)

Date Brightness Start Highest point End Pass type
(mag) Time Alt. Az. Time Alt. Az. Time Alt. Az.
25 Sep 4.3 04:42:45 27° SE 04:42:45 27° SE 04:45:30 10° E visible
26 Sep 4.9 04:26:36 22° ESE 04:26:36 22° ESE 04:28:24 10° E visible
26 Sep 3.0 06:01:32 13° WSW 06:05:04 58° S 06:09:01 10° E visible
27 Sep 5.5 04:10:26 15° ESE 04:10:26 15° ESE 04:11:17 10° E visible
27 Sep 3.0 05:45:22 21° WSW 05:47:53 58° S 05:51:51 10° E visible
28 Sep 2.9 05:29:11 34° WSW 05:30:42 59° S 05:34:39 10° E visible
29 Sep 2.8 05:13:01 53° SW 05:13:31 58° S 05:17:28 10° ESE visible
30 Sep 3.2 04:56:53 51° SSE 04:56:53 51° SSE 05:00:16 10° ESE visible
01 Oct 4.2 04:40:46 31° ESE 04:40:46 31° ESE 04:43:04 10° ESE visible
01 Oct 4.0 06:15:55 10° WSW 06:19:23 28° SSW 06:22:52 10° SE visible
02 Oct 5.2 04:24:43 18° ESE 04:24:43 18° ESE 04:25:51 10° ESE visible
02 Oct 4.1 05:59:39 14° WSW 06:02:09 25° SSW 06:05:30 10° SE visible
03 Oct 4.2 05:43:39 19° SW 05:44:55 22° SSW 05:48:05 10° SSE visible
04 Oct 4.4 05:27:43 19° SSW 05:27:43 19° SSW 05:30:36 10° SSE visible
